GW2345 Weather Reports


time (UTC)temp
F
wind
direction
speed
knots
gust
knots
rain 1hr
in
rain 24hr
in
rain mn
in
humidity
%
barometer
mb
20260509201948 87 201 2.6 2.6 0.00 0.00 0.00 61 1011.9
20260509201443 87 147 0.9 2.6 0.00 0.00 0.00 60 1011.9
20260509200940 88 122 0.0 2.6 0.00 0.00 0.00 62 1012.2
20260509200440 85 118 0.0 0.9 0.00 0.00 0.00 66 1011.9
20260509195937 87 74 0.9 1.7 0.00 0.00 0.00 60 1012.0
20260509195427 86 187 0.9 1.7 0.00 0.00 0.00 64 1012.2
20260509194926 85 109 0.0 0.9 0.00 0.00 0.00 64 1012.1
20260509194422 85 87 0.9 0.9 0.00 0.00 0.00 61 1012.0
20260509193920 84 118 0.0 0.9 0.00 0.00 0.00 62 1012.3
20260509193419 84 130 0.0 1.7 0.00 0.00 0.00 63 1012.1
20260509192915 86 157 0.9 5.2 0.00 0.00 0.00 65 1012.1
20260509192412 86 159 0.9 1.7 0.00 0.00 0.00 64 1012.4
20260509191907 84 106 0.0 0.9 0.00 0.00 0.00 64 1012.2
20260509191403 86 174 1.7 2.6 0.00 0.00 0.00 65 1012.3
20260509190859 85 113 0.0 5.2 0.00 0.00 0.00 68 1012.6
20260509190356 85 131 0.0 1.7 0.00 0.00 0.00 66 1012.7
20260509185854 85 131 0.9 1.7 0.00 0.00 0.00 66 1012.8
20260509185350 85 110 0.0 0.9 0.00 0.00 0.00 62 1012.9
20260509184847 85 159 0.0 1.7 0.00 0.00 0.00 65 1013.0
20260509184344 84 120 0.0 1.7 0.00 0.00 0.00 64 1013.0
20260509183841 83 132 0.0 1.7 0.00 0.00 0.00 66 1012.9
20260509183336 83 139 0.0 2.6 0.00 0.00 0.00 67 1013.0
20260509182832 82 157 0.9 1.7 0.00 0.00 0.00 67 1013.0
20260509182330 81 150 0.0 0.9 0.00 0.00 0.00 70 1013.2
20260509181827 81 142 0.0 0.0 0.00 0.00 0.00 71 1013.3
20260509181324 82 142 0.0 0.0 0.00 0.00 0.00 69 1013.0
20260509180821 82 102 0.0 0.0 0.00 0.00 0.00 71 1013.4
20260509180317 83 102 0.0 0.0 0.00 0.00 0.00 70 1013.6
20260509175814 82 102 0.0 0.0 0.00 0.00 0.00 71 1013.4
20260509175310 83 117 0.0 0.0 0.00 0.00 0.00 74 1013.3
20260509174806 84 104 0.0 0.0 0.00 0.00 0.00 68 1013.3
20260509174302 85 129 0.0 1.7 0.00 0.00 0.00 68 1013.4
20260509173758 84 120 0.9 2.6 0.00 0.00 0.00 70 1013.6
20260509173254 83 128 1.7 2.6 0.00 0.00 0.00 71 1013.5
20260509172750 84 57 0.9 1.7 0.00 0.00 0.00 69 1013.5
20260509172247 84 144 0.9 2.6 0.00 0.00 0.00 68 1013.5
20260509171742 83 105 0.9 0.9 0.00 0.00 0.00 70 1013.6
20260509171239 84 149 0.9 1.7 0.00 0.00 0.00 69 1013.8
20260509170736 83 107 0.9 1.7 0.00 0.00 0.00 73 1013.7
20260509170232 82 124 0.9 1.7 0.00 0.00 0.00 73 1013.9
20260509165730 81 108 0.9 2.6 0.00 0.00 0.00 74 1013.8
20260509165225 81 118 0.9 1.7 0.00 0.00 0.00 74 1013.9
20260509164721 82 94 0.9 4.3 0.00 0.00 0.00 76 1013.8
20260509164217 82 104 0.9 2.6 0.00 0.00 0.00 76 1014.0
20260509163715 82 13 2.6 2.6 0.00 0.00 0.00 74 1013.9
20260509163212 81 125 0.9 1.7 0.00 0.00 0.00 77 1014.1
20260509162709 79 107 0.0 0.9 0.00 0.00 0.00 83 1014.2
20260509162204 79 114 0.0 0.9 0.00 0.00 0.00 81 1014.1
20260509161700 79 97 0.0 0.9 0.00 0.00 0.00 82 1014.0
20260509161156 78 120 0.9 0.9 0.00 0.00 0.00 82 1014.0
20260509160652 79 109 0.0 0.0 0.00 0.00 0.00 82 1014.0
20260509160147 80 109 0.0 0.9 0.00 0.00 0.00 80 1014.1
20260509155644 82 105 0.9 2.6 0.00 0.00 0.00 80 1013.7
20260509155140 80 125 0.9 2.6 0.00 0.00 0.00 80 1013.8
20260509154636 78 133 0.9 0.9 0.00 0.00 0.00 83 1013.7
20260509154133 79 69 0.9 4.3 0.00 0.00 0.00 84 1013.9
20260509153630 77 110 0.9 0.9 0.00 0.00 0.00 85 1013.7
20260509153127 80 72 3.5 5.2 0.00 0.00 0.00 81 1013.6
20260509152622 78 112 0.9 0.9 0.00 0.00 0.00 82 1013.5
20260509152120 80 116 0.9 0.9 0.00 0.00 0.00 81 1013.5
20260509151616 80 113 1.7 2.6 0.00 0.00 0.00 79 1013.4
20260509151114 79 74 0.9 1.7 0.00 0.00 0.00 83 1013.5
20260509150611 79 335 3.5 4.3 0.00 0.00 0.00 84 1013.4
20260509150110 78 107 0.0 0.0 0.00 0.00 0.00 85 1013.6
20260509145605 78 103 0.0 0.9 0.00 0.00 0.00 86 1013.4
20260509145101 79 288 2.6 4.3 0.00 0.00 0.00 84 1013.2
20260509144558 79 111 0.9 4.3 0.00 0.00 0.00 85 1013.3
20260509144055 78 68 0.9 2.6 0.00 0.00 0.00 85 1013.1
20260509143552 77 134 0.9 2.6 0.00 0.00 0.00 86 1012.8
20260509143049 77 23 2.6 4.3 0.00 0.00 0.00 88 1013.2
20260509142545 77 0 2.6 4.3 0.00 0.00 0.00 89 1012.9
20260509142041 77 326 2.6 4.3 0.00 0.00 0.00 89 1013.1
20260509141537 77 104 1.7 2.6 0.00 0.00 0.00 90 1013.0
20260509141034 76 57 0.9 4.3 0.00 0.00 0.00 91 1012.0
20260509140531 75 210 4.3 8.7 0.00 0.00 0.00 92 1012.0
20260509140029 75 244 2.6 5.2 0.00 0.00 0.00 93 1012.1
20260509135525 73 256 3.5 6.1 0.00 0.00 0.00 96 1012.0
20260509135023 73 171 0.9 2.6 0.00 0.00 0.00 97 1012.3
20260509134520 72 226 3.5 7.0 0.00 0.00 0.00 97 1012.3
20260509134018 73 153 1.7 5.2 0.00 0.00 0.00 98 1012.5
20260509133514 72 167 0.9 2.6 0.00 0.00 0.00 99 1012.1
20260509133012 71 141 2.6 2.6 0.00 0.00 0.00 99 1012.2
20260509132510 71 167 1.7 5.2 0.00 0.00 0.00 99 1012.0
20260509132008 71 179 2.6 5.2 0.00 0.00 0.00 99 1012.2
20260509131504 71 143 0.0 0.0 0.00 0.00 0.00 99 1012.2
20260509131001 71 143 0.0 0.0 0.00 0.00 0.00 99 1012.0
20260509130456 70 133 0.0 0.0 0.00 0.00 0.00 99 1012.0
20260509125954 70 110 0.0 0.9 0.00 0.00 0.00 99 1011.8
20260509125450 70 132 0.0 0.9 0.00 0.00 0.00 99 1011.8
20260509124946 70 132 0.0 0.0 0.00 0.00 0.00 99 1012.0
20260509124443 70 94 0.0 0.9 0.00 0.00 0.00 99 1012.1
20260509123940 69 152 0.0 2.6 0.00 0.00 0.00 99 1011.6
20260509123438 69 131 0.0 1.7 0.00 0.00 0.00 99 1012.0
20260509122933 69 136 0.0 0.0 0.00 0.00 0.00 99 1012.3
20260509122431 69 148 0.0 0.0 0.00 0.00 0.00 99 1012.5
20260509121927 70 72 0.0 0.9 0.00 0.00 0.00 99 1012.8
20260509121424 70 96 0.0 0.0 0.00 0.00 0.00 99 1012.4
20260509120922 70 125 0.0 0.0 0.00 0.00 0.00 99 1012.7
20260509120420 70 119 0.0 0.0 0.00 0.00 0.00 99 1012.6
20260509115918 69 119 0.0 1.7 0.00 0.00 0.00 99 1012.4
20260509115415 69 129 0.0 0.0 0.00 0.00 0.00 99 1012.9
20260509114913 69 124 0.0 0.0 0.00 0.00 0.00 99 1013.0
20260509114411 69 117 0.0 0.0 0.00 0.00 0.00 99 1013.0
20260509113910 69 139 0.0 0.0 0.00 0.00 0.00 99 1013.0
20260509113407 69 129 0.0 1.7 0.00 0.00 0.00 99 1012.9
20260509112903 69 119 0.0 0.0 0.00 0.00 0.00 99 1013.3
20260509112400 70 79 0.0 0.0 0.00 0.00 0.00 99 1013.5
20260509111858 70 104 0.0 4.3 0.00 0.00 0.00 99 1013.7
20260509111354 70 89 0.0 1.7 0.00 0.00 0.00 99 1013.7
20260509110852 70 78 0.9 0.9 0.00 0.00 0.00 99 1013.6
20260509110348 70 125 0.0 0.0 0.00 0.00 0.00 99 1013.9
20260509105847 70 109 0.0 1.7 0.00 0.00 0.00 99 1013.7
20260509105344 70 76 0.9 1.7 0.00 0.00 0.00 99 1014.0
20260509104841 70 69 0.9 1.7 0.00 0.00 0.00 99 1013.9
20260509104337 71 126 0.0 0.0 0.00 0.00 0.00 99 1014.2
20260509103835 71 121 0.0 0.0 0.00 0.00 0.00 99 1014.1
20260509103332 71 132 0.0 0.0 0.00 0.00 0.00 99 1014.0
20260509102831 71 131 0.0 0.0 0.00 0.00 0.00 99 1014.0
20260509102328 71 130 0.0 0.0 0.00 0.00 0.00 99 1014.0
20260509101824 71 107 0.0 0.0 0.00 0.00 0.00 99 1014.1
20260509101320 71 107 0.0 0.0 0.00 0.00 0.00 99 1014.0
20260509100818 71 107 0.0 0.0 0.00 0.00 0.00 99 1014.0
20260509100315 71 106 0.0 0.0 0.00 0.00 0.00 99 1013.9
20260509095811 71 107 0.0 0.0 0.00 0.00 0.00 99 1013.7
20260509095309 71 116 0.0 0.0 0.00 0.00 0.00 99 1013.2
20260509094806 71 116 0.0 0.0 0.00 0.00 0.00 99 1013.4
20260509094302 71 114 0.0 0.0 0.00 0.00 0.00 99 1013.3
20260509093800 71 114 0.0 0.0 0.00 0.00 0.00 99 1013.3
20260509093257 71 116 0.0 0.0 0.00 0.00 0.00 99 1013.3
20260509092755 71 111 0.0 0.0 0.00 0.00 0.00 99 1013.2
20260509092253 71 112 0.0 0.0 0.00 0.00 0.00 99 1013.3
20260509091751 71 115 0.0 0.0 0.00 0.00 0.00 99 1013.3
20260509091247 71 101 0.0 0.0 0.00 0.00 0.00 99 1013.2
20260509090745 71 103 0.0 0.0 0.00 0.00 0.00 99 1013.2
20260509090242 71 109 0.0 0.0 0.00 0.00 0.00 99 1012.9
20260509085739 71 133 0.0 0.0 0.00 0.00 0.00 99 1012.9
20260509085237 71 122 0.0 0.9 0.00 0.00 0.00 99 1012.8
20260509084733 71 143 0.9 0.9 0.00 0.00 0.00 99 1012.6
20260509084230 71 129 0.0 0.0 0.00 0.00 0.00 99 1012.8
20260509083728 71 130 0.0 0.0 0.00 0.00 0.00 99 1012.8
20260509083224 71 130 0.0 0.0 0.00 0.00 0.00 99 1013.0
20260509082721 71 125 0.0 0.9 0.00 0.00 0.00 99 1013.1
20260509082218 71 128 0.0 0.0 0.00 0.00 0.00 98 1013.1
20260509081714 71 124 0.0 0.0 0.00 0.00 0.00 98 1012.9
20260509081212 71 121 0.0 0.0 0.00 0.00 0.00 98 1012.8
20260509080710 71 122 0.0 0.0 0.00 0.00 0.00 98 1012.7
20260509080208 71 123 0.0 0.9 0.00 0.00 0.00 98 1013.1
20260509075706 71 132 0.0 0.0 0.00 0.00 0.00 98 1013.3
20260509075203 71 124 0.0 0.9 0.00 0.00 0.00 98 1013.2
20260509074700 71 137 0.0 0.9 0.00 0.00 0.00 98 1013.1
20260509074156 71 127 0.0 0.9 0.00 0.00 0.00 98 1013.0
20260509073653 71 121 0.0 0.9 0.00 0.00 0.00 98 1013.2
20260509073149 72 115 0.0 1.7 0.00 0.00 0.00 97 1013.4
20260509072646 72 125 0.0 1.7 0.00 0.00 0.00 97 1013.7
20260509072143 72 125 0.0 0.0 0.00 0.00 0.00 98 1013.7
20260509071639 72 128 0.0 0.0 0.00 0.00 0.00 97 1013.7
20260509071137 72 126 0.0 0.0 0.00 0.00 0.00 97 1013.5
20260509070634 72 108 0.0 0.0 0.00 0.00 0.00 97 1013.2
20260509070130 72 108 0.0 0.0 0.00 0.00 0.00 97 1013.4
20260509065626 72 108 0.0 0.0 0.00 0.00 0.00 97 1013.8
20260509065123 72 107 0.0 0.0 0.00 0.00 0.00 97 1013.4
20260509064620 72 122 0.0 0.0 0.00 0.00 0.00 97 1013.6
20260509064118 72 122 0.0 0.0 0.00 0.00 0.00 97 1013.5
20260509063614 72 127 0.0 0.0 0.00 0.00 0.00 97 1013.6
20260509063111 72 123 0.0 0.0 0.00 0.00 0.00 97 1013.6
20260509062608 72 125 0.0 0.0 0.00 0.00 0.00 97 1013.4
20260509062105 72 143 0.0 0.9 0.00 0.00 0.00 97 1013.3
20260509061602 72 138 0.0 1.7 0.00 0.00 0.00 97 1013.4
20260509061059 71 150 0.0 0.0 0.00 0.00 0.00 97 1013.5
20260509060557 71 132 0.0 1.7 0.00 0.00 0.00 97 1013.4
20260509060052 71 186 0.9 2.6 0.00 0.00 0.00 97 1013.5
20260509055548 71 165 0.0 1.7 0.00 0.00 0.00 97 1013.3
20260509055044 71 142 0.0 1.7 0.00 0.00 0.00 97 1012.9
20260509054541 71 116 0.0 0.0 0.00 0.00 0.00 97 1012.9
20260509054039 71 124 0.0 0.9 0.00 0.00 0.00 97 1012.5
20260509053537 71 149 0.0 0.0 0.00 0.00 0.00 97 1012.7
20260509053034 71 126 0.0 1.7 0.00 0.00 0.00 97 1012.4
20260509052531 71 124 0.0 2.6 0.00 0.00 0.00 97 1012.3
20260509052029 71 132 0.0 0.9 0.00 0.00 0.00 97 1012.4
20260509051527 71 135 0.0 1.7 0.00 0.00 0.00 97 1012.1
20260509051024 71 118 0.0 1.7 0.00 0.00 0.00 97 1012.1
20260509050521 71 138 0.9 2.6 0.00 0.00 0.00 97 1012.3
20260509050017 71 145 1.7 2.6 0.00 0.00 0.00 97 1012.3
20260509045509 71 122 0.0 0.9 0.00 0.00 0.00 97 1012.4
20260509045006 71 115 0.0 0.9 0.00 0.00 0.00 97 1012.4
20260509044504 70 119 0.0 0.9 0.00 0.00 0.00 97 1012.3
20260509044001 70 127 0.0 1.7 0.00 0.00 0.00 97 1012.5
20260509043456 70 139 0.9 1.7 0.00 0.00 0.00 97 1012.3
20260509042951 70 124 0.0 1.7 0.00 0.00 0.00 97 1012.4
20260509042449 70 129 0.0 1.7 0.00 0.00 0.00 96 1012.4
20260509041945 71 135 0.9 1.7 0.00 0.00 0.00 96 1012.3
20260509041442 71 126 0.0 0.9 0.00 0.00 0.00 96 1012.5
20260509040940 71 211 0.9 2.6 0.00 0.00 0.00 96 1012.5
20260509040438 71 178 1.7 4.3 0.00 0.00 0.00 96 1012.3
20260509035934 71 169 1.7 2.6 0.00 0.00 0.00 96 1012.5
20260509035431 71 120 0.9 2.6 0.00 0.00 0.00 96 1012.2
20260509034927 71 199 2.6 2.6 0.00 0.00 0.00 96 1012.2
20260509034426 71 119 1.7 2.6 0.00 0.00 0.00 95 1012.1
20260509033922 71 153 1.7 2.6 0.00 0.00 0.00 95 1012.1
20260509033419 71 159 2.6 2.6 0.00 0.00 0.00 95 1012.0
20260509032916 71 93 0.0 2.6 0.00 0.00 0.00 95 1012.1
20260509032413 72 119 0.9 4.3 0.00 0.00 0.00 95 1012.1
20260509031911 72 140 2.6 5.2 0.00 0.00 0.00 95 1012.2
20260509031408 72 102 2.6 5.2 0.00 0.00 0.00 95 1011.9
20260509030906 72 119 0.9 4.3 0.00 0.00 0.00 94 1012.0
20260509030404 72 131 1.7 6.1 0.00 0.00 0.00 94 1011.7
20260509025901 72 154 2.6 4.3 0.00 0.00 0.00 94 1011.6
20260509025356 72 116 0.0 5.2 0.00 0.00 0.00 94 1011.6
20260509024851 72 162 2.6 5.2 0.00 0.00 0.00 94 1011.4
20260509024348 72 156 0.9 6.1 0.00 0.00 0.00 94 1011.6
20260509023845 72 188 3.5 4.3 0.00 0.00 0.00 95 1011.4
20260509023342 72 116 0.0 4.3 0.00 0.00 0.00 95 1011.4
20260509022838 71 164 0.9 0.9 0.00 0.00 0.00 95 1011.6
20260509022336 71 130 0.0 1.7 0.00 0.00 0.00 94 1011.1
20260509021833 71 118 0.0 0.9 0.00 0.00 0.00 94 1011.4
20260509021330 72 126 0.0 0.9 0.00 0.00 0.00 94 1011.2
20260509020827 72 128 0.0 0.0 0.00 0.00 0.00 93 1011.2
20260509020325 72 120 0.0 0.9 0.00 0.00 0.00 93 1011.4
20260509015823 72 122 0.0 0.9 0.00 0.00 0.00 93 1011.2
20260509015321 72 118 0.0 1.7 0.00 0.00 0.00 93 1011.2
20260509014817 72 125 0.0 0.9 0.00 0.00 0.00 93 1011.3
20260509014314 72 135 0.9 1.7 0.00 0.00 0.00 93 1011.3
20260509013810 72 114 0.0 0.9 0.00 0.00 0.00 93 1011.1
20260509013306 72 116 0.0 1.7 0.00 0.00 0.00 93 1011.2
20260509012757 73 144 0.0 0.9 0.00 0.00 0.00 92 1011.0
20260509012254 73 120 0.9 0.9 0.00 0.00 0.00 92 1011.1
20260509011751 73 134 0.0 1.7 0.00 0.00 0.00 92 1011.2
20260509011249 73 120 0.0 2.6 0.00 0.00 0.00 92 1011.1
20260509010746 73 124 0.9 1.7 0.00 0.00 0.00 91 1011.2
20260509010243 73 127 0.0 2.6 0.00 0.00 0.00 91 1011.1
20260509005740 73 129 0.0 1.7 0.00 0.00 0.00 91 1011.1
20260509005237 73 127 0.9 2.6 0.00 0.00 0.00 91 1011.1
20260509004732 73 129 1.7 4.3 0.00 0.00 0.00 91 1011.0
20260509004229 73 123 0.9 2.6 0.00 0.00 0.00 91 1010.9
20260509003727 73 123 2.6 4.3 0.00 0.00 0.00 91 1011.1
20260509003225 73 126 0.9 1.7 0.00 0.00 0.00 91 1011.0
20260509002722 73 135 0.9 0.9 0.00 0.00 0.00 91 1011.2
20260509002219 73 142 0.9 1.7 0.00 0.00 0.00 90 1011.4
20260509001717 73 116 0.0 2.6 0.00 0.00 0.00 90 1011.3
20260509001213 73 117 0.0 0.9 0.00 0.00 0.00 90 1011.4
20260509000711 73 109 1.7 1.7 0.00 0.00 0.00 90 1011.2
20260509000208 73 124 0.0 1.7 0.00 0.00 0.00 90 1011.2
20260508235705 73 118 1.7 1.7 0.00 0.00 0.00 90 1011.3
20260508235201 73 126 0.0 0.9 0.00 0.00 0.00 90 1011.7
20260508234658 73 156 0.9 1.7 0.00 0.00 0.00 90 1011.4
20260508234154 73 152 0.0 1.7 0.00 0.00 0.00 90 1011.5
20260508233649 73 142 0.9 1.7 0.00 0.00 0.00 89 1011.6
20260508233146 73 94 0.9 0.9 0.00 0.00 0.00 89 1011.5
20260508232643 73 105 0.9 1.7 0.00 0.00 0.00 89 1011.4
20260508232139 74 82 1.7 1.7 0.00 0.00 0.00 88 1011.4
20260508231638 74 121 0.0 0.9 0.00 0.00 0.00 89 1011.5
20260508231134 74 104 1.7 1.7 0.00 0.00 0.00 88 1011.4
20260508230630 74 124 0.0 1.7 0.00 0.00 0.00 87 1011.4
20260508230127 74 128 0.0 2.6 0.00 0.00 0.00 86 1011.5
20260508225625 75 111 0.9 2.6 0.00 0.00 0.00 87 1011.6
20260508225121 74 96 0.0 1.7 0.00 0.00 0.00 86 1011.5
20260508224619 74 120 0.0 0.9 0.00 0.00 0.00 86 1011.6
20260508224116 74 127 0.9 2.6 0.00 0.00 0.00 86 1011.6
20260508223614 74 112 0.9 1.7 0.00 0.00 0.00 86 1011.6
20260508223111 74 101 2.6 2.6 0.00 0.00 0.00 86 1011.6
20260508222608 74 113 0.9 4.3 0.00 0.00 0.00 86 1011.7
20260508222105 74 150 0.9 2.6 0.00 0.00 0.00 85 1011.6
20260508221601 74 128 0.9 1.7 0.00 0.00 0.00 85 1011.8
20260508221057 75 77 2.6 2.6 0.00 0.00 0.00 84 1011.7
20260508220554 75 107 0.0 0.9 0.00 0.00 0.00 85 1011.8
20260508220050 75 133 0.0 2.6 0.00 0.00 0.00 84 1011.8
20260508215547 76 103 0.0 2.6 0.00 0.00 0.00 82 1011.8
20260508215044 74 153 0.9 1.7 0.00 0.00 0.00 82 1011.9
20260508214541 73 128 0.9 2.6 0.00 0.00 0.00 84 1011.8
20260508214037 75 123 0.9 2.6 0.00 0.00 0.00 83 1011.8
20260508213535 75 145 2.6 5.2 0.00 0.00 0.00 82 1011.8
20260508213030 74 116 2.6 5.2 0.00 0.00 0.00 82 1011.9
20260508212528 73 165 0.9 2.6 0.00 0.00 0.00 85 1011.9
20260508212024 73 135 0.9 1.7 0.00 0.00 0.00 85 1012.1
20260508211520 74 115 0.9 2.6 0.00 0.00 0.00 84 1012.4
20260508211016 73 167 2.6 4.3 0.00 0.00 0.00 83 1012.2
20260508210513 73 108 1.7 4.3 0.00 0.00 0.00 84 1012.4
20260508210010 74 115 0.0 2.6 0.00 0.00 0.00 84 1012.5
20260508205507 72 68 1.7 1.7 0.00 0.00 0.00 85 1012.6
20260508205003 72 132 0.9 2.6 0.00 0.00 0.00 85 1012.6
20260508204501 71 105 0.0 2.6 0.00 0.00 0.00 86 1012.7
20260508203955 72 125 2.6 4.3 0.00 0.00 0.00 84 1012.8
20260508203452 71 60 1.7 4.3 0.00 0.00 0.00 87 1012.8
20260508202948 71 146 0.9 4.3 0.00 0.00 0.00 87 1012.9
20260508202445 72 127 0.9 1.7 0.00 0.00 0.00 86 1013.1